[ ตารางข้อมูล ] [ Min-Max ] [ วันนี้4 ] [ วันนี้2 ] [ เทียบ3วัน A ] [ เทียบ4วัน B ]   

วันนี้2   [ ◀ ช่วงเก่ากว่า ] [ ช่วงที่ 210 ] [ ช่วงใหม่กว่า ▶ ] [ ล่าสุด ]    [ 3 ชั่วโมง ] [ 6 ชั่วโมง ] [ 12 ชั่วโมง ] [ 24 ชั่วโมง ]   วันนี้2

อุณภูมิตู้ Knockdown4529  ราย 6 ชั่วโมง  ที่วัดได้ ในช่วงวันเวลา 13/03/2026 (16:28) ถึง 13/03/2026 (22:28) 
ความชื้นในตู้ Knockdown4529  ราย 6 ชั่วโมง  ที่วัดได้ ในช่วงวันเวลา 13/03/2026 (16:28) ถึง 13/03/2026 (22:28) 

 
DS18B20SHTC3 
IDDate d/m/Y & Timedata1
สูง
data2
ต่ำ
data3
นอก
temp
pcb
hum
pcb
Time
 2209  13/03/2026 22:25:00  28.3  28.4  27.6  28.1  71.4  22:25 
 2208  13/03/2026 22:20:18  28.3  28.4  27.6  28.2  71.5  22:20 
 2207  13/03/2026 22:15:36  28.3  28.4  27.6  28.2  71.4  22:15 
 2206  13/03/2026 22:10:54  28.4  28.4  27.7  28.4  71.4  22:10 
 2205  13/03/2026 22:06:13  28.4  28.4  27.7  28.4  71.4  22:06 
 2204  13/03/2026 22:01:31  28.4  28.4  27.7  28.3  71.5  22:01 
 2203  13/03/2026 21:56:49  28.4  28.4  27.7  28.3  71.4  21:56 
 2202  13/03/2026 21:52:07  28.4  28.5  27.7  28.4  71.5  21:52 
 2201  13/03/2026 21:47:24  28.4  28.5  27.7  28.3  71.4  21:47 
 2200  13/03/2026 21:42:43  28.4  28.5  27.7  28.4  71.4  21:42 
 2199  13/03/2026 21:38:02  28.5  28.5  27.7  28.4  71.5  21:38 
 2198  13/03/2026 21:33:20  28.5  28.6  27.7  28.4  71.4  21:33 
 2197  13/03/2026 21:28:38  28.5  28.6  27.7  28.6  71.6  21:28 
 2196  13/03/2026 21:23:56  28.5  28.6  27.7  28.5  71.5  21:23 
 2195  13/03/2026 21:19:15  28.6  28.6  27.7  28.4  71.4  21:19 
 2194  13/03/2026 21:14:33  28.6  28.6  27.7  28.6  71.5  21:14 
 2193  13/03/2026 21:09:51  28.6  28.6  27.8  28.6  71.5  21:09 
 2192  13/03/2026 21:05:09  28.6  28.6  27.8  28.5  71.5  21:05 
 2191  13/03/2026 21:00:27  28.6  28.7  27.8  28.7  71.5  21:00 
 2190  13/03/2026 20:55:45  28.6  28.7  27.8  28.4  71.5  20:55 
 2189  13/03/2026 20:51:05  28.6  28.7  27.9  28.6  71.6  20:51 
 2188  13/03/2026 20:46:23  28.6  28.8  27.8  28.8  71.5  20:46 
 2187  13/03/2026 20:41:41  28.7  28.8  27.8  28.6  71.6  20:41 
 2186  13/03/2026 20:36:59  28.7  28.8  27.8  28.6  71.5  20:36 

Data every 5 minute.


ใช้เวลาประมวลผล 0.00299 วินาที